Year,Month,Day,Hour,Minute,Value (Times are PST for windspeed in km/hr)
2016,03,13,00,00,6.30
2016,03,13,00,01,6.80
2016,03,13,00,02,5.40
2016,03,13,00,03,6.20
2016,03,13,00,04,5.00
2016,03,13,00,05,5.70
2016,03,13,00,06,6.60
2016,03,13,00,07,4.80
2016,03,13,00,08,4.80
2016,03,13,00,09,4.30
2016,03,13,00,10,4.80
2016,03,13,00,11,3.90
2016,03,13,00,12,2.30
2016,03,13,00,13,0.20
2016,03,13,00,14,0.00
2016,03,13,00,15,0.00
2016,03,13,00,16,1.00
2016,03,13,00,17,0.00
2016,03,13,00,18,0.00
2016,03,13,00,19,0.00
2016,03,13,00,20,0.00
2016,03,13,00,21,0.00
2016,03,13,00,22,0.00
2016,03,13,00,23,0.00
2016,03,13,00,24,0.00
2016,03,13,00,25,0.00
2016,03,13,00,26,0.00
2016,03,13,00,27,0.00
2016,03,13,00,28,0.00
2016,03,13,00,29,0.00
2016,03,13,00,30,0.10
2016,03,13,00,31,1.60
2016,03,13,00,32,2.70
2016,03,13,00,33,3.70
2016,03,13,00,34,3.70
2016,03,13,00,35,1.50
2016,03,13,00,36,1.00
2016,03,13,00,37,1.90
2016,03,13,00,38,4.00
2016,03,13,00,39,4.30
2016,03,13,00,40,3.00
2016,03,13,00,41,5.00
2016,03,13,00,42,5.60
2016,03,13,00,43,6.80
2016,03,13,00,44,6.80
2016,03,13,00,45,7.00
2016,03,13,00,46,5.30
2016,03,13,00,47,3.90
2016,03,13,00,48,4.70
2016,03,13,00,49,0.00
2016,03,13,00,50,0.00
2016,03,13,00,51,0.00
2016,03,13,00,52,0.00
2016,03,13,00,53,0.00
2016,03,13,00,54,0.00
2016,03,13,00,55,0.00
2016,03,13,00,56,0.00
2016,03,13,00,57,0.00
2016,03,13,00,58,0.00
2016,03,13,00,59,0.00
2016,03,13,01,00,0.00
2016,03,13,01,01,0.00
2016,03,13,01,02,0.00
2016,03,13,01,03,1.70
2016,03,13,01,04,0.10
2016,03,13,01,05,0.00
2016,03,13,01,06,0.60
2016,03,13,01,07,0.80
2016,03,13,01,08,0.10
2016,03,13,01,09,1.50
2016,03,13,01,10,1.50
2016,03,13,01,11,1.50
2016,03,13,01,12,9.00
2016,03,13,01,13,4.20
2016,03,13,01,14,3.60
2016,03,13,01,15,2.60
2016,03,13,01,16,3.30
2016,03,13,01,17,4.10
2016,03,13,01,18,4.50
2016,03,13,01,19,2.60
2016,03,13,01,20,3.20
2016,03,13,01,21,5.90
2016,03,13,01,22,4.80
2016,03,13,01,23,5.40
2016,03,13,01,24,3.90
2016,03,13,01,25,7.60
2016,03,13,01,26,5.30
2016,03,13,01,27,2.00
2016,03,13,01,28,6.30
2016,03,13,01,29,2.70
2016,03,13,01,30,2.80
2016,03,13,01,31,3.40
2016,03,13,01,32,4.10
2016,03,13,01,33,3.00
2016,03,13,01,34,2.80
2016,03,13,01,35,1.20
2016,03,13,01,36,0.10
2016,03,13,01,37,5.10
2016,03,13,01,38,3.10
2016,03,13,01,39,1.50
2016,03,13,01,40,4.90
2016,03,13,01,41,3.50
2016,03,13,01,42,3.10
2016,03,13,01,43,0.50
2016,03,13,01,44,2.60
2016,03,13,01,45,4.00
2016,03,13,01,46,1.90
2016,03,13,01,47,3.30
2016,03,13,01,48,3.70
2016,03,13,01,49,3.20
2016,03,13,01,50,4.30
2016,03,13,01,51,0.70
2016,03,13,01,52,2.60
2016,03,13,01,53,0.00
2016,03,13,01,54,2.40
2016,03,13,01,55,3.30
2016,03,13,01,56,0.20
2016,03,13,01,57,0.60
2016,03,13,01,58,0.00
2016,03,13,01,59,0.10
2016,03,13,03,00,0.00
2016,03,13,03,01,0.00
2016,03,13,03,02,0.20
2016,03,13,03,03,1.00
2016,03,13,03,04,3.80
2016,03,13,03,05,4.00
2016,03,13,03,06,3.90
2016,03,13,03,07,2.90
2016,03,13,03,08,3.40
2016,03,13,03,09,1.90
2016,03,13,03,10,1.30
2016,03,13,03,11,0.00
2016,03,13,03,12,1.80
2016,03,13,03,13,0.10
2016,03,13,03,14,0.50
2016,03,13,03,15,1.50
2016,03,13,03,16,0.40
2016,03,13,03,17,0.90
2016,03,13,03,18,0.00
2016,03,13,03,19,0.00
2016,03,13,03,20,1.50
2016,03,13,03,21,1.50
2016,03,13,03,22,0.40
2016,03,13,03,23,0.00
2016,03,13,03,24,1.20
2016,03,13,03,25,0.20
2016,03,13,03,26,0.00
2016,03,13,03,27,2.40
2016,03,13,03,28,0.00
2016,03,13,03,29,2.70
2016,03,13,03,30,3.70
2016,03,13,03,31,3.10
2016,03,13,03,32,3.20
2016,03,13,03,33,6.20
2016,03,13,03,34,5.10
2016,03,13,03,35,5.30
2016,03,13,03,36,5.20
2016,03,13,03,37,8.10
2016,03,13,03,38,4.30
2016,03,13,03,39,2.20
2016,03,13,03,40,9.30
2016,03,13,03,41,5.50
2016,03,13,03,42,3.80
2016,03,13,03,43,2.50
2016,03,13,03,44,1.50
2016,03,13,03,45,3.60
2016,03,13,03,46,5.90
2016,03,13,03,47,5.60
2016,03,13,03,48,3.80
2016,03,13,03,49,4.80
2016,03,13,03,50,5.90
2016,03,13,03,51,5.10
2016,03,13,03,52,8.60
2016,03,13,03,53,5.40
2016,03,13,03,54,8.50
2016,03,13,03,55,6.40
2016,03,13,03,56,7.70
2016,03,13,03,57,6.90
2016,03,13,03,58,5.90
2016,03,13,03,59,5.80
2016,03,13,04,00,5.20
2016,03,13,04,01,7.80
2016,03,13,04,02,7.40
2016,03,13,04,03,3.70
2016,03,13,04,04,8.90
2016,03,13,04,05,9.60
2016,03,13,04,06,7.00
2016,03,13,04,07,9.70
2016,03,13,04,08,7.50
2016,03,13,04,09,9.40
2016,03,13,04,10,8.30
2016,03,13,04,11,8.10
2016,03,13,04,12,13.50
2016,03,13,04,13,13.40
2016,03,13,04,14,7.10
2016,03,13,04,15,15.70
2016,03,13,04,16,11.80
2016,03,13,04,17,9.00
2016,03,13,04,18,8.50
2016,03,13,04,19,7.40
2016,03,13,04,20,9.90
2016,03,13,04,21,13.70
2016,03,13,04,22,16.30
2016,03,13,04,23,11.10
2016,03,13,04,24,15.70
2016,03,13,04,25,19.80
2016,03,13,04,26,18.60
2016,03,13,04,27,13.50
2016,03,13,04,28,14.70
2016,03,13,04,29,15.10
2016,03,13,04,30,12.00
2016,03,13,04,31,16.00
2016,03,13,04,32,16.20
2016,03,13,04,33,18.80
2016,03,13,04,34,9.60
2016,03,13,04,35,9.80
2016,03,13,04,36,12.00
2016,03,13,04,37,13.40
2016,03,13,04,38,13.70
2016,03,13,04,39,18.60
2016,03,13,04,40,13.40
2016,03,13,04,41,16.70
2016,03,13,04,42,19.70
2016,03,13,04,43,12.90
2016,03,13,04,44,16.60
2016,03,13,04,45,11.30
2016,03,13,04,46,14.50
2016,03,13,04,47,14.50
2016,03,13,04,48,16.50
2016,03,13,04,49,20.60
2016,03,13,04,50,22.10
2016,03,13,04,51,17.00
2016,03,13,04,52,16.50
2016,03,13,04,53,17.20
2016,03,13,04,54,10.30
2016,03,13,04,55,11.50
2016,03,13,04,56,15.90
2016,03,13,04,57,17.80
2016,03,13,04,58,20.60
2016,03,13,04,59,20.30
2016,03,13,05,00,17.30
2016,03,13,05,01,21.20
2016,03,13,05,02,12.10
2016,03,13,05,03,15.70
2016,03,13,05,04,11.20
2016,03,13,05,05,12.00
2016,03,13,05,06,13.30
2016,03,13,05,07,17.70
2016,03,13,05,08,16.10
2016,03,13,05,09,10.50
2016,03,13,05,10,15.10
2016,03,13,05,11,14.30
2016,03,13,05,12,8.60
2016,03,13,05,13,10.30
2016,03,13,05,14,13.90
2016,03,13,05,15,14.80
2016,03,13,05,16,18.20
2016,03,13,05,17,12.00
2016,03,13,05,18,14.70
2016,03,13,05,19,19.30
2016,03,13,05,20,17.20
2016,03,13,05,21,16.30
2016,03,13,05,22,13.70
2016,03,13,05,23,18.20
2016,03,13,05,24,17.90
2016,03,13,05,25,15.10
2016,03,13,05,26,11.60
2016,03,13,05,27,15.10
2016,03,13,05,28,16.20
2016,03,13,05,29,15.40
2016,03,13,05,30,17.30
2016,03,13,05,31,18.50
2016,03,13,05,32,12.30
2016,03,13,05,33,11.50
2016,03,13,05,34,23.30
2016,03,13,05,35,14.10
2016,03,13,05,36,16.40
2016,03,13,05,37,8.10
2016,03,13,05,38,20.20
2016,03,13,05,39,13.20
2016,03,13,05,40,15.10
2016,03,13,05,41,25.10
2016,03,13,05,42,18.50
2016,03,13,05,43,24.70
2016,03,13,05,44,13.80
2016,03,13,05,45,16.90
2016,03,13,05,46,15.80
2016,03,13,05,47,14.70
2016,03,13,05,48,13.00
2016,03,13,05,49,13.60
2016,03,13,05,50,16.80
2016,03,13,05,51,23.80
2016,03,13,05,52,14.90
2016,03,13,05,53,11.40
2016,03,13,05,54,14.70
2016,03,13,05,55,9.80
2016,03,13,05,56,9.20
2016,03,13,05,57,15.50
2016,03,13,05,58,14.40
2016,03,13,05,59,17.70
2016,03,13,06,00,19.20
2016,03,13,06,01,17.30
2016,03,13,06,02,10.80
2016,03,13,06,03,14.50
2016,03,13,06,04,6.60
2016,03,13,06,05,11.00
2016,03,13,06,06,16.20
2016,03,13,06,07,13.40
2016,03,13,06,08,15.40
2016,03,13,06,09,18.00
2016,03,13,06,10,20.80
2016,03,13,06,11,22.30
2016,03,13,06,12,15.70
2016,03,13,06,13,15.60
2016,03,13,06,14,13.50
2016,03,13,06,15,16.80
2016,03,13,06,16,13.80
2016,03,13,06,17,11.10
2016,03,13,06,18,13.90
2016,03,13,06,19,9.70
2016,03,13,06,20,13.90
2016,03,13,06,21,15.60
2016,03,13,06,22,15.10
2016,03,13,06,23,7.90
2016,03,13,06,24,8.70
2016,03,13,06,25,19.70
2016,03,13,06,26,11.90
2016,03,13,06,27,14.80
2016,03,13,06,28,13.60
2016,03,13,06,29,14.00
2016,03,13,06,30,12.30
2016,03,13,06,31,16.00
2016,03,13,06,32,16.20
2016,03,13,06,33,11.60
2016,03,13,06,34,13.30
2016,03,13,06,35,4.80
2016,03,13,06,36,10.30
2016,03,13,06,37,13.70
2016,03,13,06,38,14.90
2016,03,13,06,39,14.00
2016,03,13,06,40,16.00
2016,03,13,06,41,12.50
2016,03,13,06,42,12.50
2016,03,13,06,43,11.70
2016,03,13,06,44,14.00
2016,03,13,06,45,15.20
2016,03,13,06,46,18.40
2016,03,13,06,47,17.60
2016,03,13,06,48,10.90
2016,03,13,06,49,10.30
2016,03,13,06,50,18.40
2016,03,13,06,51,18.40
2016,03,13,06,52,15.80
2016,03,13,06,53,11.00
2016,03,13,06,54,14.60
2016,03,13,06,55,11.30
2016,03,13,06,56,10.40
2016,03,13,06,57,18.50
2016,03,13,06,58,19.30
2016,03,13,06,59,19.50
2016,03,13,07,00,23.00
2016,03,13,07,01,9.10
2016,03,13,07,02,15.10
2016,03,13,07,03,12.70
2016,03,13,07,04,12.90
2016,03,13,07,05,8.70
2016,03,13,07,06,14.80
2016,03,13,07,07,14.20
2016,03,13,07,08,11.60
2016,03,13,07,09,18.70
2016,03,13,07,10,21.00
2016,03,13,07,11,19.90
2016,03,13,07,12,10.40
2016,03,13,07,13,21.40
2016,03,13,07,14,16.80
2016,03,13,07,15,14.00
2016,03,13,07,16,20.60
2016,03,13,07,17,16.30
2016,03,13,07,18,14.00
2016,03,13,07,19,11.10
2016,03,13,07,20,5.90
2016,03,13,07,21,12.50
2016,03,13,07,22,7.80
2016,03,13,07,23,11.50
2016,03,13,07,24,20.60
2016,03,13,07,25,14.30
2016,03,13,07,26,12.20
2016,03,13,07,27,16.50
2016,03,13,07,28,12.40
2016,03,13,07,29,14.60
2016,03,13,07,30,11.00
2016,03,13,07,31,8.60
2016,03,13,07,32,17.00
2016,03,13,07,33,10.70
2016,03,13,07,34,8.20
2016,03,13,07,35,15.40
2016,03,13,07,36,16.70
2016,03,13,07,37,10.80
2016,03,13,07,38,8.10
2016,03,13,07,39,13.50
2016,03,13,07,40,8.70
2016,03,13,07,41,16.20
2016,03,13,07,42,15.70
2016,03,13,07,43,18.00
2016,03,13,07,44,12.70
2016,03,13,07,45,13.40
2016,03,13,07,46,16.30
2016,03,13,07,47,15.50
2016,03,13,07,48,17.20
2016,03,13,07,49,12.00
2016,03,13,07,50,8.40
2016,03,13,07,51,11.60
2016,03,13,07,52,15.30
2016,03,13,07,53,15.40
2016,03,13,07,54,18.60
2016,03,13,07,55,13.00
2016,03,13,07,56,11.80
2016,03,13,07,57,9.70
2016,03,13,07,58,16.40
2016,03,13,07,59,18.70
2016,03,13,08,00,14.80
2016,03,13,08,01,20.20
2016,03,13,08,02,18.90
2016,03,13,08,03,15.70
2016,03,13,08,04,12.50
2016,03,13,08,05,8.30
2016,03,13,08,06,15.50
2016,03,13,08,07,18.50
2016,03,13,08,08,14.60
2016,03,13,08,09,10.80
2016,03,13,08,10,13.50
2016,03,13,08,11,15.40
2016,03,13,08,12,16.90
2016,03,13,08,13,10.90
2016,03,13,08,14,11.40
2016,03,13,08,15,17.00
2016,03,13,08,16,12.10
2016,03,13,08,17,11.10
2016,03,13,08,18,9.50
2016,03,13,08,19,11.70
2016,03,13,08,20,16.00
2016,03,13,08,21,13.70
2016,03,13,08,22,16.70
2016,03,13,08,23,18.00
2016,03,13,08,24,15.80
2016,03,13,08,25,16.50
2016,03,13,08,26,12.90
2016,03,13,08,27,15.40
2016,03,13,08,28,17.50
2016,03,13,08,29,16.00
2016,03,13,08,30,15.10
2016,03,13,08,31,10.10
2016,03,13,08,32,14.80
2016,03,13,08,33,8.60
2016,03,13,08,34,10.10
2016,03,13,08,35,13.20
2016,03,13,08,36,14.60
2016,03,13,08,37,15.70
2016,03,13,08,38,12.90
2016,03,13,08,39,12.00
2016,03,13,08,40,9.90
2016,03,13,08,41,12.80
2016,03,13,08,42,10.70
2016,03,13,08,43,8.70
2016,03,13,08,44,9.70
2016,03,13,08,45,12.20
2016,03,13,08,46,13.10
2016,03,13,08,47,7.90
2016,03,13,08,48,14.80
2016,03,13,08,49,14.40
2016,03,13,08,50,11.60
2016,03,13,08,51,6.30
2016,03,13,08,52,10.50
2016,03,13,08,53,11.60
2016,03,13,08,54,15.80
2016,03,13,08,55,16.80
2016,03,13,08,56,11.80
2016,03,13,08,57,7.50
2016,03,13,08,58,13.50
2016,03,13,08,59,14.20
2016,03,13,09,00,17.10
2016,03,13,09,01,9.50
2016,03,13,09,02,10.20
2016,03,13,09,03,9.20
2016,03,13,09,04,11.80
2016,03,13,09,05,5.40
2016,03,13,09,06,11.80
2016,03,13,09,07,13.90
2016,03,13,09,08,16.10
2016,03,13,09,09,12.70
2016,03,13,09,10,5.50
2016,03,13,09,11,13.90
2016,03,13,09,12,18.70
2016,03,13,09,13,10.30
2016,03,13,09,14,14.60
2016,03,13,09,15,15.40
2016,03,13,09,16,13.50
2016,03,13,09,17,14.90
2016,03,13,09,18,15.80
2016,03,13,09,19,15.40
2016,03,13,09,20,17.10
2016,03,13,09,21,16.30
2016,03,13,09,22,14.30
2016,03,13,09,23,16.50
2016,03,13,09,24,18.40
2016,03,13,09,25,15.70
2016,03,13,09,26,12.70
2016,03,13,09,27,15.10
2016,03,13,09,28,12.60
2016,03,13,09,29,10.50
2016,03,13,09,30,13.20
2016,03,13,09,31,12.30
2016,03,13,09,32,10.80
2016,03,13,09,33,15.10
2016,03,13,09,34,10.10
2016,03,13,09,35,9.60
2016,03,13,09,36,14.30
2016,03,13,09,37,11.10
2016,03,13,09,38,14.80
2016,03,13,09,39,12.00
2016,03,13,09,40,15.90
2016,03,13,09,41,8.40
2016,03,13,09,42,16.60
2016,03,13,09,43,12.40
2016,03,13,09,44,17.50
2016,03,13,09,45,8.30
2016,03,13,09,46,13.00
2016,03,13,09,47,17.40
2016,03,13,09,48,18.40
2016,03,13,09,49,17.10
2016,03,13,09,50,20.10
2016,03,13,09,51,19.00
2016,03,13,09,52,18.90
2016,03,13,09,53,13.30
2016,03,13,09,54,17.80
2016,03,13,09,55,18.40
2016,03,13,09,56,15.80
2016,03,13,09,57,13.80
2016,03,13,09,58,11.30
2016,03,13,09,59,10.70
2016,03,13,10,00,20.50
2016,03,13,10,01,15.70
2016,03,13,10,02,15.90
2016,03,13,10,03,12.70
2016,03,13,10,04,15.80
2016,03,13,10,05,13.70
2016,03,13,10,06,12.80
2016,03,13,10,07,15.50
2016,03,13,10,08,18.40
2016,03,13,10,09,12.90
2016,03,13,10,10,15.10
2016,03,13,10,11,16.10
2016,03,13,10,12,17.70
2016,03,13,10,13,11.70
2016,03,13,10,14,11.30
2016,03,13,10,15,19.30
2016,03,13,10,16,19.10
2016,03,13,10,17,14.30
2016,03,13,10,18,18.00
2016,03,13,10,19,17.00
2016,03,13,10,20,13.40
2016,03,13,10,21,17.70
2016,03,13,10,22,15.20
2016,03,13,10,23,15.70
2016,03,13,10,24,15.30
2016,03,13,10,25,10.20
2016,03,13,10,26,12.90
2016,03,13,10,27,15.10
2016,03,13,10,28,14.50
2016,03,13,10,29,14.20
2016,03,13,10,30,16.10
2016,03,13,10,31,16.20
2016,03,13,10,32,11.30
2016,03,13,10,33,10.60
2016,03,13,10,34,12.90
2016,03,13,10,35,7.20
2016,03,13,10,36,13.70
2016,03,13,10,37,17.00
2016,03,13,10,38,13.10
2016,03,13,10,39,11.50
2016,03,13,10,40,12.20
2016,03,13,10,41,10.80
2016,03,13,10,42,19.20
2016,03,13,10,43,14.40
2016,03,13,10,44,10.30
2016,03,13,10,45,9.60
2016,03,13,10,46,8.80
2016,03,13,10,47,9.10
2016,03,13,10,48,9.20
2016,03,13,10,49,13.30
2016,03,13,10,50,9.40
2016,03,13,10,51,10.20
2016,03,13,10,52,9.50
2016,03,13,10,53,13.00
2016,03,13,10,54,13.70
2016,03,13,10,55,7.70
2016,03,13,10,56,13.70
2016,03,13,10,57,12.80
2016,03,13,10,58,12.80
2016,03,13,10,59,16.10
2016,03,13,11,00,11.70
2016,03,13,11,01,11.20
2016,03,13,11,02,10.30
2016,03,13,11,03,10.70
2016,03,13,11,04,13.00
2016,03,13,11,05,8.70
2016,03,13,11,06,13.20
2016,03,13,11,07,16.20
2016,03,13,11,08,11.50
2016,03,13,11,09,16.40
2016,03,13,11,10,18.20
2016,03,13,11,11,20.30
2016,03,13,11,12,14.00
2016,03,13,11,13,13.80
2016,03,13,11,14,10.10
2016,03,13,11,15,14.40
2016,03,13,11,16,13.80
2016,03,13,11,17,10.70
2016,03,13,11,18,9.90
2016,03,13,11,19,10.70
2016,03,13,11,20,17.60
2016,03,13,11,21,17.30
2016,03,13,11,22,13.20
2016,03,13,11,23,16.20
2016,03,13,11,24,11.90
2016,03,13,11,25,10.60
2016,03,13,11,26,12.90
2016,03,13,11,27,11.70
2016,03,13,11,28,14.70
2016,03,13,11,29,19.10
2016,03,13,11,30,14.20
2016,03,13,11,31,13.70
2016,03,13,11,32,13.70
2016,03,13,11,33,23.20
2016,03,13,11,34,14.60
2016,03,13,11,35,13.00
2016,03,13,11,36,14.30
2016,03,13,11,37,16.00
2016,03,13,11,38,19.00
2016,03,13,11,39,15.70
2016,03,13,11,40,15.70
2016,03,13,11,41,17.90
2016,03,13,11,42,11.30
2016,03,13,11,43,11.50
2016,03,13,11,44,13.40
2016,03,13,11,45,8.60
2016,03,13,11,46,12.00
2016,03,13,11,47,15.20
2016,03,13,11,48,13.30
2016,03,13,11,49,12.70
2016,03,13,11,50,15.90
2016,03,13,11,51,22.90
2016,03,13,11,52,18.80
2016,03,13,11,53,13.30
2016,03,13,11,54,8.90
2016,03,13,11,55,14.40
2016,03,13,11,56,15.30
2016,03,13,11,57,13.20
2016,03,13,11,58,10.20
2016,03,13,11,59,17.70
2016,03,13,12,00,17.80
2016,03,13,12,01,19.50
2016,03,13,12,02,16.20
2016,03,13,12,03,14.80
2016,03,13,12,04,13.50
2016,03,13,12,05,17.80
2016,03,13,12,06,18.50
2016,03,13,12,07,17.20
2016,03,13,12,08,13.70
2016,03,13,12,09,20.60
2016,03,13,12,10,13.60
2016,03,13,12,11,13.90
2016,03,13,12,12,14.10
2016,03,13,12,13,16.90
2016,03,13,12,14,16.80
2016,03,13,12,15,16.60
2016,03,13,12,16,20.30
2016,03,13,12,17,17.80
2016,03,13,12,18,11.30
2016,03,13,12,19,12.30
2016,03,13,12,20,12.40
2016,03,13,12,21,16.10
2016,03,13,12,22,16.70
2016,03,13,12,23,13.40
2016,03,13,12,24,13.00
2016,03,13,12,25,13.40
2016,03,13,12,26,17.00
2016,03,13,12,27,19.10
2016,03,13,12,28,16.90
2016,03,13,12,29,16.80
2016,03,13,12,30,17.60
2016,03,13,12,31,16.50
2016,03,13,12,32,10.20
2016,03,13,12,33,11.00
2016,03,13,12,34,19.80
2016,03,13,12,35,20.80
2016,03,13,12,36,17.80
2016,03,13,12,37,18.80
2016,03,13,12,38,20.00
2016,03,13,12,39,19.50
2016,03,13,12,40,9.00
2016,03,13,12,41,22.10
2016,03,13,12,42,17.00
2016,03,13,12,43,18.40
2016,03,13,12,44,16.80
2016,03,13,12,45,16.50
2016,03,13,12,46,21.10
2016,03,13,12,47,22.80
2016,03,13,12,48,20.50
2016,03,13,12,49,18.70
2016,03,13,12,50,16.50
2016,03,13,12,51,18.30
2016,03,13,12,52,19.90
2016,03,13,12,53,15.70
2016,03,13,12,54,18.50
2016,03,13,12,55,17.50
2016,03,13,12,56,15.10
2016,03,13,12,57,22.20
2016,03,13,12,58,22.80
2016,03,13,12,59,17.90
2016,03,13,13,00,26.00
2016,03,13,13,01,21.60
2016,03,13,13,02,10.80
2016,03,13,13,03,14.80
2016,03,13,13,04,14.70
2016,03,13,13,05,14.90
2016,03,13,13,06,11.50
2016,03,13,13,07,12.50
2016,03,13,13,08,17.70
2016,03,13,13,09,18.60
2016,03,13,13,10,13.70
2016,03,13,13,11,17.00
2016,03,13,13,12,11.80
2016,03,13,13,13,16.80
2016,03,13,13,14,17.10
2016,03,13,13,15,11.10
2016,03,13,13,16,13.00
2016,03,13,13,17,17.00
2016,03,13,13,18,13.50
2016,03,13,13,19,16.50
2016,03,13,13,20,17.30
2016,03,13,13,21,8.60
2016,03,13,13,22,11.90
2016,03,13,13,23,21.60
2016,03,13,13,24,14.40
2016,03,13,13,25,14.50
2016,03,13,13,26,20.50
2016,03,13,13,27,20.60
2016,03,13,13,28,19.80
2016,03,13,13,29,17.90
2016,03,13,13,30,19.60
2016,03,13,13,31,18.30
2016,03,13,13,32,18.60
2016,03,13,13,33,14.30
2016,03,13,13,34,15.30
2016,03,13,13,35,17.10
2016,03,13,13,36,14.80
2016,03,13,13,37,12.30
2016,03,13,13,38,15.90
2016,03,13,13,39,15.90
2016,03,13,13,40,13.80
2016,03,13,13,41,17.80
2016,03,13,13,42,22.80
2016,03,13,13,43,19.80
2016,03,13,13,44,9.10
2016,03,13,13,45,15.00
2016,03,13,13,46,21.30
2016,03,13,13,47,17.50
2016,03,13,13,48,16.70
2016,03,13,13,49,14.10
2016,03,13,13,50,15.10
2016,03,13,13,51,14.30
2016,03,13,13,52,17.20
2016,03,13,13,53,11.10
2016,03,13,13,54,15.20
2016,03,13,13,55,16.70
2016,03,13,13,56,15.00
2016,03,13,13,57,15.00
2016,03,13,13,58,16.40
2016,03,13,13,59,19.70
2016,03,13,14,00,17.90
2016,03,13,14,01,17.70
2016,03,13,14,02,16.20
2016,03,13,14,03,13.00
2016,03,13,14,04,18.90
2016,03,13,14,05,17.80
2016,03,13,14,06,17.70
2016,03,13,14,07,9.10
2016,03,13,14,08,13.00
2016,03,13,14,09,14.60
2016,03,13,14,10,17.00
2016,03,13,14,11,22.30
2016,03,13,14,12,23.70
2016,03,13,14,13,19.80
2016,03,13,14,14,22.80
2016,03,13,14,15,14.80
2016,03,13,14,16,20.90
2016,03,13,14,17,10.80
2016,03,13,14,18,18.10
2016,03,13,14,19,18.00
2016,03,13,14,20,14.80
2016,03,13,14,21,17.60
2016,03,13,14,22,15.40
2016,03,13,14,23,18.70
2016,03,13,14,24,22.20
2016,03,13,14,25,18.90
2016,03,13,14,26,20.20
2016,03,13,14,27,13.50
2016,03,13,14,28,20.30
2016,03,13,14,29,21.40
2016,03,13,14,30,16.30
2016,03,13,14,31,19.70
2016,03,13,14,32,14.90
2016,03,13,14,33,16.30
2016,03,13,14,34,17.70
2016,03,13,14,35,13.90
2016,03,13,14,36,15.10
2016,03,13,14,37,14.90
2016,03,13,14,38,20.20
2016,03,13,14,39,21.50
2016,03,13,14,40,20.00
2016,03,13,14,41,22.50
2016,03,13,14,42,19.90
2016,03,13,14,43,21.90
2016,03,13,14,44,17.30
2016,03,13,14,45,21.50
2016,03,13,14,46,20.20
2016,03,13,14,47,19.90
2016,03,13,14,48,27.00
2016,03,13,14,49,19.40
2016,03,13,14,50,17.40
2016,03,13,14,51,27.00
2016,03,13,14,52,20.40
2016,03,13,14,53,29.20
2016,03,13,14,54,28.30
2016,03,13,14,55,27.70
2016,03,13,14,56,32.60
2016,03,13,14,57,25.70
2016,03,13,14,58,24.60
2016,03,13,14,59,17.20
2016,03,13,15,00,24.70
2016,03,13,15,01,25.60
2016,03,13,15,02,19.20
2016,03,13,15,03,22.70
2016,03,13,15,04,27.70
2016,03,13,15,05,21.20
2016,03,13,15,06,29.20
2016,03,13,15,07,15.20
2016,03,13,15,08,20.40
2016,03,13,15,09,24.10
2016,03,13,15,10,22.20
2016,03,13,15,11,24.10
2016,03,13,15,12,18.80
2016,03,13,15,13,24.80
2016,03,13,15,14,27.60
2016,03,13,15,15,27.30
2016,03,13,15,16,19.40
2016,03,13,15,17,23.80
2016,03,13,15,18,22.10
2016,03,13,15,19,24.20
2016,03,13,15,20,24.80
2016,03,13,15,21,27.20
2016,03,13,15,22,21.50
2016,03,13,15,23,20.00
2016,03,13,15,24,24.60
2016,03,13,15,25,21.50
2016,03,13,15,26,20.50
2016,03,13,15,27,23.80
2016,03,13,15,28,21.10
2016,03,13,15,29,20.00
2016,03,13,15,30,19.70
2016,03,13,15,31,15.20
2016,03,13,15,32,21.40
2016,03,13,15,33,22.70
2016,03,13,15,34,17.90
2016,03,13,15,35,18.80
2016,03,13,15,36,17.70
2016,03,13,15,37,19.10
2016,03,13,15,38,19.60
2016,03,13,15,39,14.80
2016,03,13,15,40,19.70
2016,03,13,15,41,17.40
2016,03,13,15,42,21.00
2016,03,13,15,43,17.00
2016,03,13,15,44,16.50
2016,03,13,15,45,17.30
2016,03,13,15,46,16.20
2016,03,13,15,47,19.10
2016,03,13,15,48,18.90
2016,03,13,15,49,16.20
2016,03,13,15,50,18.70
2016,03,13,15,51,17.00
2016,03,13,15,52,18.90
2016,03,13,15,53,20.60
2016,03,13,15,54,21.20
2016,03,13,15,55,15.70
2016,03,13,15,56,18.60
2016,03,13,15,57,14.10
2016,03,13,15,58,13.50
2016,03,13,15,59,14.60
2016,03,13,16,00,16.40
2016,03,13,16,01,18.70
2016,03,13,16,02,21.30
2016,03,13,16,03,15.10
2016,03,13,16,04,17.60
2016,03,13,16,05,13.20
2016,03,13,16,06,11.80
2016,03,13,16,07,11.70
2016,03,13,16,08,14.80
2016,03,13,16,09,15.70
2016,03,13,16,10,14.20
2016,03,13,16,11,17.80
2016,03,13,16,12,19.00
2016,03,13,16,13,11.60
2016,03,13,16,14,17.10
2016,03,13,16,15,16.40
2016,03,13,16,16,11.50
2016,03,13,16,17,16.90
2016,03,13,16,18,19.40
2016,03,13,16,19,21.10
2016,03,13,16,20,22.50
2016,03,13,16,21,16.80
2016,03,13,16,22,21.00
2016,03,13,16,23,18.80
2016,03,13,16,24,16.80
2016,03,13,16,25,20.30
2016,03,13,16,26,22.30
2016,03,13,16,27,25.50
2016,03,13,16,28,21.70
2016,03,13,16,29,22.10
2016,03,13,16,30,16.20
2016,03,13,16,31,21.70
2016,03,13,16,32,23.90
2016,03,13,16,33,20.50
2016,03,13,16,34,24.70
2016,03,13,16,35,23.30
2016,03,13,16,36,22.70
2016,03,13,16,37,34.00
2016,03,13,16,38,30.20
2016,03,13,16,39,26.10
2016,03,13,16,40,30.70
2016,03,13,16,41,27.60
2016,03,13,16,42,39.40
2016,03,13,16,43,32.30
2016,03,13,16,44,39.10
2016,03,13,16,45,31.30
2016,03,13,16,46,29.50
2016,03,13,16,47,32.80
2016,03,13,16,48,34.80
2016,03,13,16,49,36.20
2016,03,13,16,50,31.00
2016,03,13,16,51,28.80
2016,03,13,16,52,37.20
2016,03,13,16,53,30.60
2016,03,13,16,54,35.20
2016,03,13,16,55,40.90
2016,03,13,16,56,35.10
2016,03,13,16,57,48.10
2016,03,13,16,58,48.30
2016,03,13,16,59,54.90
2016,03,13,17,00,47.50
2016,03,13,17,01,46.00
2016,03,13,17,02,50.20
2016,03,13,17,03,44.20
2016,03,13,17,04,38.50
2016,03,13,17,05,39.40
2016,03,13,17,06,45.10
2016,03,13,17,07,40.00
2016,03,13,17,08,44.00
2016,03,13,17,09,37.30
2016,03,13,17,10,39.60
2016,03,13,17,11,37.40
2016,03,13,17,12,43.70
2016,03,13,17,13,45.20
2016,03,13,17,14,33.20
2016,03,13,17,15,35.00
2016,03,13,17,16,51.80
2016,03,13,17,17,49.50
2016,03,13,17,18,40.90
2016,03,13,17,19,45.60
2016,03,13,17,20,35.40
2016,03,13,17,21,29.90
2016,03,13,17,22,42.30
2016,03,13,17,23,37.60
2016,03,13,17,24,46.10
2016,03,13,17,25,43.80
2016,03,13,17,26,39.10
2016,03,13,17,27,41.40
2016,03,13,17,28,44.00
2016,03,13,17,29,41.80
2016,03,13,17,30,43.50
2016,03,13,17,31,56.00
2016,03,13,17,32,55.70
2016,03,13,17,33,54.80
2016,03,13,17,34,40.00
2016,03,13,17,35,39.00
2016,03,13,17,36,45.70
2016,03,13,17,37,61.20
2016,03,13,17,38,49.40
2016,03,13,17,39,41.90
2016,03,13,17,40,51.80
2016,03,13,17,41,49.00
2016,03,13,17,42,37.80
2016,03,13,17,43,41.80
2016,03,13,17,44,45.80
2016,03,13,17,45,30.40
2016,03,13,17,46,46.80
2016,03,13,17,47,49.00
2016,03,13,17,48,34.70
2016,03,13,17,49,34.50
2016,03,13,17,50,32.80
2016,03,13,17,51,37.20
2016,03,13,17,52,39.70
2016,03,13,17,53,39.50
2016,03,13,17,54,30.30
2016,03,13,17,55,35.90
2016,03,13,17,56,38.40
2016,03,13,17,57,33.10
2016,03,13,17,58,29.40
2016,03,13,17,59,44.10
2016,03,13,18,00,32.00
2016,03,13,18,01,39.50
2016,03,13,18,02,40.90
2016,03,13,18,03,22.30
2016,03,13,18,04,28.80
2016,03,13,18,05,32.50
2016,03,13,18,06,24.90
2016,03,13,18,07,29.70
2016,03,13,18,08,28.30
2016,03,13,18,09,42.50
2016,03,13,18,10,31.70
2016,03,13,18,11,32.10
2016,03,13,18,12,26.20
2016,03,13,18,13,19.50
2016,03,13,18,14,31.20
2016,03,13,18,15,43.20
2016,03,13,18,16,42.30
2016,03,13,18,17,33.60
2016,03,13,18,18,32.80
2016,03,13,18,19,37.60
2016,03,13,18,20,36.20
2016,03,13,18,21,34.10
2016,03,13,18,22,33.90
2016,03,13,18,23,40.50
2016,03,13,18,24,34.70
2016,03,13,18,25,35.30
2016,03,13,18,26,43.30
2016,03,13,18,27,35.00
2016,03,13,18,28,33.10
2016,03,13,18,29,38.50
2016,03,13,18,30,36.90